| time (UTC) | temp C | wind direction | speed KPH | gust KPH | rain 1hr cm | rain 24hr cm | rain mn cm | humidity % | barometer mb |
| 20260503181211 | 13 | 217 | 1.6 | 9.7 | 0.00 | 0.00 | 0.00 | 82 | 1009.3 |
| 20260503180211 | 13 | 228 | 3.2 | 11.3 | 0.00 | 0.00 | 0.00 | 83 | 1009.3 |
| 20260503175213 | 14 | 200 | 3.2 | 11.3 | 0.00 | 0.00 | 0.00 | 80 | 1009.3 |
| 20260503174209 | 13 | 203 | 1.6 | 11.3 | 0.00 | 0.00 | 0.00 | 83 | 1009.4 |
| 20260503173211 | 14 | 123 | 1.6 | 8.0 | 0.00 | 0.00 | 0.00 | 84 | 1009.2 |
| 20260503172157 | 13 | 207 | 1.6 | 6.4 | 0.00 | 0.00 | 0.00 | 86 | 1009.4 |
| 20260503171143 | 13 | 203 | 1.6 | 6.4 | 0.00 | 0.00 | 0.00 | 86 | 1009.2 |
| 20260503170138 | 12 | 217 | 0.0 | 8.0 | 0.00 | 0.00 | 0.00 | 88 | 1009.0 |
| 20260503150926 | 10 | 115 | 0.0 | 3.2 | 0.00 | 0.00 | 0.00 | 96 | 1008.5 |
| 20260503130744 | 9 | 331 | 0.0 | 4.8 | 0.00 | 0.00 | 0.00 | 98 | 1006.7 |
| 20260503120201 | 9 | 73 | 0.0 | 3.2 | 0.00 | 0.00 | 0.00 | 98 | 1006.7 |
| 20260503110610 | 9 | 218 | 0.0 | 1.6 | 0.00 | 0.00 | 0.00 | 96 | 1006.6 |
| 20260503090344 | 9 | 205 | 0.0 | 4.8 | 0.00 | 0.00 | 0.00 | 97 | 1007.1 |
| 20260503081243 | 9 | 225 | 0.0 | 1.6 | 0.00 | 0.00 | 0.00 | 98 | 1007.6 |
| 20260503080238 | 9 | 14 | 0.0 | 6.4 | 0.00 | 0.00 | 0.00 | 98 | 1007.5 |
| 20260503072156 | 9 | 119 | 0.0 | 1.6 | 0.00 | 0.00 | 0.00 | 98 | 1007.6 |
| 20260503071634 | 9 | 234 | 0.0 | 8.0 | 0.00 | 0.00 | 0.00 | 98 | 1007.6 |
| 20260503070123 | 9 | 109 | 0.0 | 3.2 | 0.00 | 0.00 | 0.00 | 98 | 1007.5 |
| 20260503055039 | 9 | 193 | 0.0 | 3.2 | 0.00 | 0.00 | 0.00 | 99 | 1008.1 |
| 20260503054016 | 9 | 217 | 1.6 | 6.4 | 0.00 | 0.00 | 0.00 | 99 | 1008.1 |
| 20260503052940 | 9 | 65 | 0.0 | 6.4 | 0.00 | 0.00 | 0.00 | 99 | 1008.0 |
| 20260503051938 | 9 | 178 | 1.6 | 8.0 | 0.00 | 0.00 | 0.00 | 99 | 1008.1 |
| 20260503050939 | 9 | 202 | 0.0 | 3.2 | 0.00 | 0.00 | 0.00 | 99 | 1008.0 |
| 20260503045929 | 9 | 180 | 0.0 | 3.2 | 0.00 | 0.00 | 0.00 | 99 | 1008.1 |
| 20260503044920 | 9 | 230 | 1.6 | 6.4 | 0.00 | 0.00 | 0.00 | 99 | 1008.2 |
| 20260503044402 | 9 | 61 | 0.0 | 6.4 | 0.00 | 0.00 | 0.00 | 99 | 1008.2 |
| 20260503042904 | 9 | 99 | 0.0 | 6.4 | 0.00 | 0.00 | 0.00 | 99 | 1008.1 |
| 20260503041857 | 9 | 206 | 1.6 | 9.7 | 0.00 | 0.00 | 0.00 | 98 | 1008.0 |
| 20260503040851 | 9 | 77 | 0.0 | 3.2 | 0.00 | 0.00 | 0.00 | 98 | 1007.9 |
| 20260503040349 | 9 | 163 | 1.6 | 8.0 | 0.00 | 0.00 | 0.00 | 98 | 1007.8 |
| 20260503035349 | 9 | 247 | 0.0 | 8.0 | 0.00 | 0.00 | 0.00 | 98 | 1007.8 |
| 20260503033840 | 9 | 74 | 0.0 | 8.0 | 0.00 | 0.00 | 0.00 | 98 | 1007.8 |
| 20260503033344 | 10 | 200 | 1.6 | 8.0 | 0.00 | 0.00 | 0.00 | 97 | 1007.6 |
| 20260503031823 | 10 | 215 | 1.6 | 4.8 | 0.00 | 0.00 | 0.00 | 97 | 1007.6 |
| 20260503030759 | 10 | 246 | 1.6 | 8.0 | 0.00 | 0.00 | 0.00 | 97 | 1007.5 |
| 20260503025754 | 10 | 34 | 1.6 | 16.1 | 0.00 | 0.00 | 0.00 | 96 | 1007.4 |
| 20260503024753 | 10 | 142 | 0.0 | 4.8 | 0.00 | 0.00 | 0.00 | 96 | 1007.5 |
| 20260503023750 | 10 | 91 | 0.0 | 6.4 | 0.00 | 0.00 | 0.00 | 95 | 1007.4 |
| 20260503022749 | 10 | 34 | 1.6 | 11.3 | 0.00 | 0.00 | 0.00 | 95 | 1007.4 |
| 20260503022249 | 10 | 63 | 1.6 | 8.0 | 0.00 | 0.00 | 0.00 | 95 | 1007.5 |
| 20260503020750 | 10 | 111 | 0.0 | 9.7 | 0.00 | 0.00 | 0.00 | 95 | 1007.6 |
| 20260503020243 | 10 | 200 | 0.0 | 6.4 | 0.00 | 0.00 | 0.00 | 94 | 1007.7 |
| 20260503014738 | 10 | 221 | 0.0 | 4.8 | 0.00 | 0.00 | 0.00 | 94 | 1007.7 |
| 20260503013738 | 10 | 9 | 0.0 | 4.8 | 0.00 | 0.00 | 0.00 | 94 | 1007.8 |
| 20260503012736 | 10 | 346 | 1.6 | 9.7 | 0.00 | 0.00 | 0.00 | 94 | 1007.8 |
| 20260503011731 | 11 | 48 | 0.0 | 8.0 | 0.00 | 0.00 | 0.00 | 93 | 1007.9 |
| 20260503010730 | 11 | 338 | 0.0 | 4.8 | 0.00 | 0.00 | 0.00 | 93 | 1007.9 |
| 20260503010214 | 11 | 188 | 3.2 | 8.0 | 0.00 | 0.00 | 0.00 | 92 | 1008.0 |
| 20260503004708 | 11 | 291 | 1.6 | 6.4 | 0.00 | 0.00 | 0.00 | 91 | 1007.9 |
| 20260503003640 | 11 | 92 | 1.6 | 6.4 | 0.00 | 0.00 | 0.00 | 92 | 1008.0 |
| 20260503002642 | 11 | 302 | 1.6 | 14.5 | 0.00 | 0.00 | 0.00 | 91 | 1008.0 |
| 20260503001640 | 11 | 199 | 1.6 | 9.7 | 0.00 | 0.00 | 0.00 | 90 | 1008.1 |
| 20260503000636 | 11 | 183 | 1.6 | 6.4 | 0.00 | 0.00 | 0.00 | 90 | 1008.1 |
| 20260502235632 | 11 | 97 | 1.6 | 11.3 | 0.00 | 0.00 | 0.00 | 89 | 1008.1 |
| 20260502234633 | 12 | 232 | 0.0 | 3.2 | 0.00 | 0.00 | 0.00 | 89 | 1008.3 |
| 20260502233633 | 12 | 355 | 1.6 | 9.7 | 0.00 | 0.00 | 0.00 | 89 | 1008.3 |
| 20260502232618 | 12 | 154 | 1.6 | 8.0 | 0.00 | 0.00 | 0.00 | 88 | 1008.5 |
| 20260502231618 | 12 | 248 | 1.6 | 8.0 | 0.00 | 0.00 | 0.00 | 86 | 1008.6 |
| 20260502230612 | 12 | 130 | 1.6 | 9.7 | 0.00 | 0.00 | 0.00 | 86 | 1008.7 |
| 20260502225608 | 13 | 218 | 1.6 | 9.7 | 0.00 | 0.00 | 0.00 | 86 | 1008.9 |
| 20260502224607 | 13 | 263 | 1.6 | 9.7 | 0.00 | 0.00 | 0.00 | 86 | 1008.9 |
| 20260502223559 | 13 | 280 | 1.6 | 6.4 | 0.00 | 0.00 | 0.00 | 84 | 1009.1 |
| 20260502222556 | 13 | 68 | 1.6 | 6.4 | 0.00 | 0.00 | 0.00 | 84 | 1009.1 |
| 20260502221544 | 14 | 16 | 1.6 | 8.0 | 0.00 | 0.00 | 0.00 | 82 | 1009.2 |
| 20260502221047 | 13 | 191 | 1.6 | 11.3 | 0.00 | 0.00 | 0.00 | 85 | 1009.3 |
| 20260502215543 | 13 | 124 | 0.0 | 3.2 | 0.00 | 0.00 | 0.00 | 84 | 1009.4 |
| 20260502215022 | 13 | 78 | 1.6 | 8.0 | 0.00 | 0.00 | 0.00 | 85 | 1009.4 |
| 20260502213512 | 13 | 223 | 1.6 | 6.4 | 0.00 | 0.00 | 0.00 | 83 | 1009.5 |
| 20260502212501 | 13 | 216 | 1.6 | 8.0 | 0.00 | 0.00 | 0.00 | 85 | 1009.5 |
| 20260502211952 | 13 | 103 | 1.6 | 4.8 | 0.00 | 0.00 | 0.00 | 88 | 1009.5 |
| 20260502205945 | 12 | 148 | 1.6 | 9.7 | 0.00 | 0.00 | 0.00 | 91 | 1009.6 |
| 20260502204947 | 12 | 209 | 0.0 | 6.4 | 0.00 | 0.00 | 0.00 | 91 | 1009.7 |
| 20260502203937 | 12 | 92 | 1.6 | 4.8 | 0.00 | 0.00 | 0.00 | 91 | 1009.7 |
| 20260502202432 | 12 | 66 | 0.0 | 1.6 | 0.00 | 0.00 | 0.00 | 92 | 1009.8 |
| 20260502201431 | 12 | 136 | 0.0 | 3.2 | 0.00 | 0.00 | 0.00 | 93 | 1010.0 |
| 20260502200417 | 12 | 230 | 1.6 | 6.4 | 0.00 | 0.00 | 0.00 | 94 | 1009.9 |
| 20260502195408 | 12 | 221 | 0.0 | 4.8 | 0.00 | 0.00 | 0.00 | 95 | 1010.0 |
| 20260502193350 | 12 | 163 | 0.0 | 4.8 | 0.00 | 0.00 | 0.00 | 96 | 1009.9 |
| 20260502192348 | 11 | 9 | 1.6 | 8.0 | 0.00 | 0.00 | 0.00 | 95 | 1009.8 |
| 20260502191348 | 12 | 208 | 1.6 | 9.7 | 0.00 | 0.00 | 0.00 | 95 | 1010.0 |
| 20260502190348 | 12 | 229 | 1.6 | 9.7 | 0.00 | 0.00 | 0.00 | 95 | 1009.9 |
| 20260502185348 | 12 | 208 | 1.6 | 6.4 | 0.00 | 0.00 | 0.00 | 94 | 1009.9 |
| 20260502184339 | 12 | 238 | 1.6 | 8.0 | 0.00 | 0.00 | 0.00 | 93 | 1009.9 |
| 20260502183336 | 12 | 192 | 0.0 | 3.2 | 0.00 | 0.00 | 0.00 | 94 | 1009.9 |
| 20260502182335 | 12 | 227 | 1.6 | 9.7 | 0.00 | 0.00 | 0.00 | 93 | 1009.9 |